| time (UTC) | temp F | wind direction | speed MPH | gust MPH | rain 1hr in | rain 24hr in | rain mn in | humidity % | barometer mb |
| 20260509060915 | 56 | 135 | 0.0 | 0.0 | 0.00 | 0.00 | 0.00 | 66 | 1034.8 |
| 20260509055014 | 56 | 135 | 0.0 | 0.0 | 0.00 | 0.00 | 0.00 | 66 | 1034.8 |
| 20260509054014 | 56 | 135 | 0.0 | 0.0 | 0.00 | 0.00 | 0.00 | 65 | 1034.9 |
| 20260509053016 | 57 | 135 | 0.0 | 0.0 | 0.00 | 0.00 | 0.00 | 64 | 1035.0 |
| 20260509051915 | 57 | 135 | 0.0 | 0.0 | 0.00 | 0.00 | 0.00 | 64 | 1035.2 |
| 20260509045916 | 57 | 135 | 0.0 | 0.0 | 0.00 | 0.00 | 0.00 | 63 | 1035.1 |
| 20260509043917 | 57 | 135 | 0.0 | 0.0 | 0.00 | 0.00 | 0.00 | 63 | 1035.1 |
| 20260509042915 | 57 | 135 | 0.0 | 0.0 | 0.00 | 0.00 | 0.00 | 63 | 1035.2 |
| 20260509042014 | 57 | 135 | 0.0 | 0.0 | 0.00 | 0.00 | 0.00 | 62 | 1035.1 |
| 20260509041916 | 57 | 135 | 0.0 | 0.0 | 0.00 | 0.00 | 0.00 | 62 | 1035.2 |
| 20260509035919 | 57 | 135 | 0.0 | 0.0 | 0.00 | 0.00 | 0.00 | 60 | 1035.2 |
| 20260509034919 | 57 | 135 | 0.0 | 0.0 | 0.00 | 0.00 | 0.00 | 61 | 1035.1 |
| 20260509033921 | 57 | 135 | 0.0 | 0.0 | 0.00 | 0.00 | 0.00 | 61 | 1035.2 |
| 20260509032919 | 57 | 135 | 0.0 | 0.0 | 0.00 | 0.00 | 0.00 | 60 | 1035.2 |
| 20260509032019 | 57 | 135 | 0.0 | 0.0 | 0.00 | 0.00 | 0.00 | 60 | 1035.2 |
| 20260509030021 | 58 | 135 | 0.0 | 0.0 | 0.00 | 0.00 | 0.00 | 58 | 1035.1 |
| 20260509025020 | 58 | 135 | 0.0 | 0.0 | 0.00 | 0.00 | 0.00 | 58 | 1035.1 |
| 20260509024020 | 58 | 135 | 0.0 | 0.0 | 0.00 | 0.00 | 0.00 | 55 | 1035.2 |
| 20260509023020 | 58 | 135 | 0.0 | 0.0 | 0.00 | 0.00 | 0.00 | 56 | 1035.3 |
| 20260509022918 | 58 | 135 | 0.0 | 0.0 | 0.00 | 0.00 | 0.00 | 56 | 1035.2 |
| 20260509021921 | 59 | 135 | 0.0 | 0.0 | 0.00 | 0.00 | 0.00 | 55 | 1035.1 |
| 20260509021821 | 59 | 135 | 0.0 | 0.0 | 0.00 | 0.00 | 0.00 | 55 | 1035.1 |
| 20260509020919 | 59 | 135 | 0.0 | 0.0 | 0.00 | 0.00 | 0.00 | 53 | 1035.1 |
| 20260509020820 | 59 | 135 | 0.0 | 0.0 | 0.00 | 0.00 | 0.00 | 54 | 1035.1 |
| 20260509015821 | 59 | 135 | 0.0 | 0.0 | 0.00 | 0.00 | 0.00 | 55 | 1035.0 |
| 20260509014819 | 59 | 135 | 0.0 | 0.0 | 0.00 | 0.00 | 0.00 | 52 | 1034.8 |
| 20260509013819 | 59 | 135 | 0.0 | 0.0 | 0.00 | 0.00 | 0.00 | 55 | 1035.0 |
| 20260509012819 | 59 | 135 | 0.0 | 0.0 | 0.00 | 0.00 | 0.00 | 54 | 1034.8 |
| 20260509011819 | 59 | 135 | 0.0 | 0.0 | 0.00 | 0.00 | 0.00 | 52 | 1034.7 |
| 20260509010819 | 59 | 135 | 0.0 | 0.0 | 0.00 | 0.00 | 0.00 | 53 | 1034.5 |
| 20260509005819 | 59 | 135 | 0.0 | 0.0 | 0.00 | 0.00 | 0.00 | 53 | 1034.5 |
| 20260509004820 | 59 | 135 | 0.0 | 0.0 | 0.00 | 0.00 | 0.00 | 53 | 1034.1 |
| 20260509003919 | 59 | 135 | 0.0 | 0.0 | 0.00 | 0.00 | 0.00 | 51 | 1033.9 |
| 20260509002919 | 59 | 135 | 0.0 | 0.0 | 0.00 | 0.00 | 0.00 | 50 | 1033.7 |
| 20260509001919 | 60 | 135 | 0.0 | 0.0 | 0.00 | 0.00 | 0.00 | 47 | 1033.6 |
| 20260509001820 | 60 | 135 | 0.0 | 0.0 | 0.00 | 0.00 | 0.00 | 48 | 1033.7 |
| 20260509001719 | 60 | 135 | 0.0 | 0.0 | 0.00 | 0.00 | 0.00 | 48 | 1033.6 |
| 20260509000719 | 60 | 135 | 0.0 | 0.0 | 0.00 | 0.00 | 0.00 | 48 | 1033.6 |
| 20260508235721 | 60 | 135 | 0.0 | 0.0 | 0.00 | 0.00 | 0.00 | 47 | 1033.5 |
| 20260508234819 | 61 | 135 | 0.0 | 0.0 | 0.00 | 0.00 | 0.00 | 46 | 1033.6 |
| 20260508232920 | 62 | 135 | 0.0 | 0.0 | 0.00 | 0.00 | 0.00 | 46 | 1033.3 |
| 20260508231921 | 62 | 135 | 0.0 | 0.0 | 0.00 | 0.00 | 0.00 | 45 | 1033.2 |
| 20260508230919 | 63 | 135 | 0.0 | 0.0 | 0.00 | 0.00 | 0.00 | 44 | 1033.1 |
| 20260508225920 | 63 | 135 | 0.0 | 0.0 | 0.00 | 0.00 | 0.00 | 44 | 1033.1 |
| 20260508223922 | 64 | 135 | 0.0 | 0.0 | 0.00 | 0.00 | 0.00 | 42 | 1032.9 |
| 20260508222920 | 65 | 135 | 0.0 | 0.0 | 0.00 | 0.00 | 0.00 | 41 | 1033.1 |
| 20260508221935 | 64 | 135 | 0.0 | 0.0 | 0.00 | 0.00 | 0.00 | 40 | 1033.1 |
| 20260508220921 | 65 | 135 | 0.0 | 0.0 | 0.00 | 0.00 | 0.00 | 41 | 1033.0 |
| 20260508215919 | 65 | 135 | 0.0 | 0.0 | 0.00 | 0.00 | 0.00 | 40 | 1033.1 |
| 20260508215820 | 65 | 135 | 0.0 | 0.0 | 0.00 | 0.00 | 0.00 | 40 | 1033.2 |
| 20260508215720 | 65 | 135 | 0.0 | 0.0 | 0.00 | 0.00 | 0.00 | 40 | 1033.2 |
| 20260508214719 | 65 | 135 | 0.0 | 0.0 | 0.00 | 0.00 | 0.00 | 38 | 1033.1 |
| 20260508212722 | 66 | 178 | 0.0 | 1.0 | 0.00 | 0.00 | 0.00 | 35 | 1032.9 |
| 20260508211819 | 66 | 170 | 0.0 | 3.0 | 0.00 | 0.00 | 0.00 | 34 | 1032.9 |
| 20260508210819 | 66 | 52 | 0.0 | 1.0 | 0.00 | 0.00 | 0.00 | 36 | 1033.1 |
| 20260508205818 | 66 | 180 | 0.0 | 1.0 | 0.00 | 0.00 | 0.00 | 35 | 1033.3 |
| 20260508204819 | 66 | 135 | 0.0 | 0.0 | 0.00 | 0.00 | 0.00 | 37 | 1033.3 |
| 20260508202822 | 68 | 180 | 0.0 | 0.0 | 0.00 | 0.00 | 0.00 | 34 | 1033.4 |
| 20260508201820 | 66 | 202 | 0.0 | 1.0 | 0.00 | 0.00 | 0.00 | 34 | 1033.3 |
| 20260508200919 | 66 | 180 | 0.0 | 2.0 | 0.00 | 0.00 | 0.00 | 36 | 1033.3 |
| 20260508195921 | 66 | 152 | 0.0 | 2.0 | 0.00 | 0.00 | 0.00 | 35 | 1033.5 |
| 20260508194920 | 67 | 180 | 0.0 | 0.0 | 0.00 | 0.00 | 0.00 | 33 | 1033.4 |
| 20260508193918 | 67 | 180 | 0.0 | 0.0 | 0.00 | 0.00 | 0.00 | 33 | 1033.5 |
| 20260508191921 | 67 | 178 | 0.0 | 2.0 | 0.00 | 0.00 | 0.00 | 34 | 1033.5 |
| 20260508190920 | 67 | 123 | 2.0 | 9.0 | 0.00 | 0.00 | 0.00 | 33 | 1033.6 |
| 20260508190019 | 67 | 180 | 0.0 | 1.0 | 0.00 | 0.00 | 0.00 | 32 | 1033.5 |
| 20260508184120 | 68 | 236 | 0.0 | 1.0 | 0.00 | 0.00 | 0.00 | 32 | 1033.6 |
| 20260508183119 | 68 | 175 | 1.0 | 4.0 | 0.00 | 0.00 | 0.00 | 32 | 1033.7 |
| 20260508182218 | 68 | 9 | 1.0 | 3.0 | 0.00 | 0.00 | 0.00 | 32 | 1034.0 |
| 20260508180319 | 66 | 180 | 0.0 | 2.0 | 0.00 | 0.00 | 0.00 | 35 | 1034.0 |
| 20260508175417 | 65 | 136 | 0.0 | 4.0 | 0.00 | 0.00 | 0.00 | 35 | 1034.1 |
| 20260508174419 | 65 | 135 | 0.0 | 1.0 | 0.00 | 0.00 | 0.00 | 33 | 1034.3 |
| 20260508173419 | 67 | 225 | 0.0 | 1.0 | 0.00 | 0.00 | 0.00 | 33 | 1034.4 |
| 20260508173317 | 67 | 199 | 1.0 | 4.0 | 0.00 | 0.00 | 0.00 | 32 | 1034.5 |
| 20260508165319 | 66 | 186 | 1.0 | 5.0 | 0.00 | 0.00 | 0.00 | 36 | 1034.6 |
| 20260508165218 | 66 | 141 | 0.0 | 1.0 | 0.00 | 0.00 | 0.00 | 36 | 1034.5 |
| 20260508163219 | 65 | 159 | 0.0 | 2.0 | 0.00 | 0.00 | 0.00 | 37 | 1034.9 |
| 20260508162220 | 65 | 168 | 0.0 | 1.0 | 0.00 | 0.00 | 0.00 | 36 | 1035.3 |
| 20260508161219 | 66 | 90 | 0.0 | 1.0 | 0.00 | 0.00 | 0.00 | 34 | 1035.4 |
| 20260508160220 | 66 | 180 | 0.0 | 0.0 | 0.00 | 0.00 | 0.00 | 36 | 1035.6 |
| 20260508155222 | 64 | 180 | 0.0 | 0.0 | 0.00 | 0.00 | 0.00 | 36 | 1035.6 |
| 20260508154220 | 64 | 126 | 1.0 | 3.0 | 0.00 | 0.00 | 0.00 | 36 | 1035.9 |
| 20260508153219 | 64 | 103 | 0.0 | 3.0 | 0.00 | 0.00 | 0.00 | 35 | 1036.0 |
| 20260508153121 | 64 | 32 | 0.0 | 1.0 | 0.00 | 0.00 | 0.00 | 35 | 1035.9 |
| 20260508152120 | 65 | 4 | 0.0 | 1.0 | 0.00 | 0.00 | 0.00 | 35 | 1035.9 |
| 20260508151120 | 64 | 124 | 0.0 | 1.0 | 0.00 | 0.00 | 0.00 | 36 | 1036.0 |
| 20260508151021 | 63 | 101 | 0.0 | 1.0 | 0.00 | 0.00 | 0.00 | 36 | 1036.0 |
| 20260508150118 | 62 | 254 | 0.0 | 1.0 | 0.00 | 0.00 | 0.00 | 36 | 1036.2 |
| 20260508145118 | 62 | 147 | 0.0 | 0.0 | 0.00 | 0.00 | 0.00 | 38 | 1036.0 |
| 20260508144121 | 63 | 225 | 0.0 | 0.0 | 0.00 | 0.00 | 0.00 | 36 | 1036.2 |
| 20260508143218 | 63 | 157 | 0.0 | 1.0 | 0.00 | 0.00 | 0.00 | 36 | 1036.2 |
| 20260508142221 | 62 | 67 | 0.0 | 0.0 | 0.00 | 0.00 | 0.00 | 36 | 1036.2 |
| 20260508140322 | 60 | 57 | 0.0 | 3.0 | 0.00 | 0.00 | 0.00 | 41 | 1036.4 |
| 20260508135418 | 59 | 180 | 0.0 | 0.0 | 0.00 | 0.00 | 0.00 | 44 | 1036.5 |
| 20260508134421 | 58 | 166 | 1.0 | 3.0 | 0.00 | 0.00 | 0.00 | 45 | 1036.4 |
| 20260508133518 | 58 | 159 | 1.0 | 2.0 | 0.00 | 0.01 | 0.00 | 47 | 1036.5 |
| 20260508132522 | 58 | 135 | 0.0 | 0.0 | 0.00 | 0.01 | 0.00 | 46 | 1036.6 |
| 20260508131519 | 56 | 136 | 0.0 | 2.0 | 0.00 | 0.01 | 0.00 | 48 | 1036.5 |
| 20260508131420 | 56 | 179 | 0.0 | 2.0 | 0.00 | 0.01 | 0.00 | 49 | 1036.6 |
| 20260508131318 | 56 | 183 | 0.0 | 0.0 | 0.00 | 0.01 | 0.00 | 49 | 1036.6 |
| 20260508130319 | 54 | 225 | 0.0 | 0.0 | 0.00 | 0.01 | 0.00 | 56 | 1036.6 |
| 20260508124419 | 51 | 157 | 0.0 | 0.0 | 0.00 | 0.01 | 0.00 | 64 | 1036.5 |
| 20260508124318 | 51 | 157 | 0.0 | 0.0 | 0.00 | 0.01 | 0.00 | 65 | 1036.6 |
| 20260508123318 | 51 | 180 | 0.0 | 0.0 | 0.00 | 0.01 | 0.00 | 66 | 1036.6 |
| 20260508123218 | 50 | 151 | 0.0 | 2.0 | 0.00 | 0.01 | 0.00 | 66 | 1036.6 |
| 20260508122220 | 50 | 180 | 0.0 | 0.0 | 0.00 | 0.01 | 0.00 | 71 | 1036.5 |
| 20260508121220 | 48 | 332 | 0.0 | 0.0 | 0.00 | 0.01 | 0.00 | 75 | 1036.2 |
| 20260508120221 | 47 | 180 | 0.0 | 0.0 | 0.00 | 0.01 | 0.00 | 78 | 1036.0 |
| 20260508115221 | 47 | 180 | 0.0 | 0.0 | 0.00 | 0.01 | 0.00 | 81 | 1035.9 |
| 20260508115121 | 47 | 180 | 0.0 | 1.0 | 0.00 | 0.01 | 0.00 | 80 | 1036.0 |
| 20260508114219 | 46 | 180 | 0.0 | 0.0 | 0.00 | 0.01 | 0.00 | 82 | 1035.8 |
| 20260508113219 | 45 | 180 | 0.0 | 0.0 | 0.00 | 0.01 | 0.00 | 85 | 1036.0 |
| 20260508112219 | 44 | 180 | 0.0 | 0.0 | 0.00 | 0.01 | 0.00 | 86 | 1036.0 |
| 20260508111219 | 43 | 180 | 0.0 | 0.0 | 0.00 | 0.01 | 0.00 | 87 | 1036.0 |
| 20260508105222 | 42 | 180 | 0.0 | 0.0 | 0.00 | 0.01 | 0.00 | 86 | 1035.4 |
| 20260508104221 | 42 | 180 | 0.0 | 0.0 | 0.00 | 0.01 | 0.00 | 85 | 1035.3 |
| 20260508103318 | 42 | 180 | 0.0 | 0.0 | 0.00 | 0.01 | 0.00 | 86 | 1035.4 |
| 20260508102321 | 42 | 180 | 0.0 | 0.0 | 0.00 | 0.01 | 0.00 | 86 | 1035.4 |
| 20260508101322 | 42 | 180 | 0.0 | 0.0 | 0.00 | 0.01 | 0.00 | 85 | 1035.3 |
| 20260508100419 | 42 | 180 | 0.0 | 0.0 | 0.00 | 0.01 | 0.00 | 82 | 1035.0 |
| 20260508095518 | 42 | 180 | 0.0 | 0.0 | 0.00 | 0.01 | 0.00 | 82 | 1035.0 |
| 20260508092620 | 43 | 180 | 0.0 | 0.0 | 0.00 | 0.01 | 0.00 | 79 | 1035.0 |
| 20260508091719 | 44 | 180 | 0.0 | 0.0 | 0.00 | 0.01 | 0.00 | 79 | 1035.0 |
| 20260508090720 | 44 | 180 | 0.0 | 0.0 | 0.00 | 0.01 | 0.00 | 78 | 1034.8 |
| 20260508085721 | 45 | 180 | 0.0 | 0.0 | 0.00 | 0.01 | 0.00 | 76 | 1034.8 |
| 20260508084819 | 45 | 180 | 0.0 | 0.0 | 0.00 | 0.01 | 0.00 | 76 | 1034.7 |
| 20260508083719 | 46 | 180 | 0.0 | 0.0 | 0.00 | 0.01 | 0.00 | 75 | 1034.6 |
| 20260508082720 | 46 | 180 | 0.0 | 0.0 | 0.00 | 0.01 | 0.00 | 74 | 1034.5 |
| 20260508075821 | 48 | 180 | 0.0 | 0.0 | 0.00 | 0.04 | 0.00 | 71 | 1033.8 |
| 20260508074821 | 48 | 180 | 0.0 | 0.0 | 0.00 | 0.05 | 0.00 | 71 | 1033.8 |
| 20260508073819 | 48 | 135 | 0.0 | 0.0 | 0.00 | 0.07 | 0.00 | 71 | 1033.7 |
| 20260508073719 | 48 | 135 | 0.0 | 0.0 | 0.00 | 0.07 | 0.00 | 71 | 1033.7 |
| 20260508071819 | 48 | 90 | 0.0 | 0.0 | 0.00 | 0.10 | 0.00 | 71 | 1033.4 |
| 20260508070917 | 48 | 135 | 0.0 | 0.0 | 0.00 | 0.11 | 0.00 | 72 | 1033.2 |
| 20260508065920 | 48 | 180 | 0.0 | 0.0 | 0.00 | 0.11 | 0.00 | 75 | 1033.0 |
| 20260508065819 | 48 | 180 | 0.0 | 0.0 | 0.00 | 0.12 | 0.00 | 75 | 1033.1 |
| 20260508065720 | 48 | 180 | 0.0 | 0.0 | 0.00 | 0.12 | 0.00 | 75 | 1033.1 |
| 20260508063720 | 48 | 135 | 0.0 | 0.0 | 0.00 | 0.13 | 0.00 | 78 | 1033.0 |
| 20260508062719 | 48 | 153 | 0.0 | 0.0 | 0.00 | 0.15 | 0.00 | 79 | 1032.8 |
| 20260508061818 | 48 | 180 | 0.0 | 0.0 | 0.00 | 0.18 | 0.00 | 78 | 1032.7 |